Tracking 31027 objects as of 19-Jul-2025
HD Live streaming from Space Station
objects crossing your sky now

COSMOS 1244

Track COSMOS 1244 now!
10-day predictions
COSMOS 1244 is classified as:


NORAD ID: 12297
Int'l Code: 1981-013A
Perigee: 965.0 km
Apogee: 1,011.1 km
Inclination: 83.0 °
Period: 104.7 minutes
Semi major axis: 7359 km
RCS: 2.3625 m2 (large)
Launch date: February 12, 1981
Source: Commonwealth of Independent States (former USSR) (CIS)
Launch site: PLESETSK MISSILE AND SPACE COMPLEX (PKMTR)
Your satellite tracking list
NOAA 16 DEB
Track 1 satellite(s)




NASA's NSSDC Master Catalog

Two Line Element Set (TLE):
1 12297U 81013A   25199.49799127  .00000054  00000-0  40102-4 0  9998
2 12297  82.9545 332.6010 0031309  44.5194  23.9709 13.75210232873402
Source of the keplerian elements: AFSPC